Airfield :
LOGIN :

Register | Disclaimer

   EN    FR    IT 

 










Legend :    VFR   Marginal VFR   IFR   Intensive IFR   Very Intensive IFR
Visi :
Ceiling :
>= 8 km
>= 3000ft
5 to 8 km
1000 to 3000 ft
1500m to 5 km
500 to 1000 ft
800 to 1500m
200 to 500 ft
< 800m
< 200 ft
Symbols :   Thunderstorms  Fog  Heavy snow  Heavy precipitations  Wind > 20 kt
SIGMETs :     Misc.  Thunderstorms  Icing  Turbulence  Mountain Waves  Volcanic Ashes







- Airport Elevation : 1470 ft


LSMD - Dubendorf Military

CURRENT METAR :
  • 280550Z 17003KT 120V230 5000 RA FEW016 SCT026 17/16 Q1005 RMK WHT

Expired Forecast.
No reported NOTAMs for that airfield.
1 SIGMET reported for the Switzerland FIR (LSAS) :
 
Embedded thunderstorms
LSAS SIGMET 3 VALID 280530/280800 LSZH
LSAS SWITZERLAND FIR/UIR EMBD TS OBS SE OF LINE N4555 E00756 - N4729 E00936 TOP FL380 MOV NE NC=



MET'MAP, your aeronautical weather chart ! - Copyright ORBIFLY December 2007 - Disclaimer

ORBIFLY MET'MAP TEAM :

Programming & Development : Alexandra Zaïnal
Concept & Development : Baudouin d'Aumeries
Co-Development & Prog : Marc-Olivier Méhu
Technical & hardware support : Manuel Goepfert

Contact : metmap@orbifly.com




SOURCES & CREDITS :

   NOAA